Location: Daytona Beach
(29.2106°N, 81.0231°W)
Time: 14:34:49
(UTC-04:00)

X-37B - Pass Details

Date: 21 June 2021
Orbit: 383 x 392 km, 45.0° (Epoch: 01 July)

Event Time Altitude Azimuth Distance (km) Brightness Sun altitude
Rises 04:49:19 0° 319° (NW) 2,257 4.5 -18.2°
Reaches altitude 10° 04:51:39 10° 335° (NNW) 1,403 3.6 -17.8°
Maximum altitude 04:54:15 23° 30° (NNE) 874 3.2 -17.3°
Drops below altitude 10° 04:56:50 10° 85° (E) 1,404 4.2 -16.9°
Sets 04:59:10 0° 101° (E) 2,257 5.1 -16.5°
